Regional Weather Roundup
Issued by NWS

Home | Current Version | Previous Version | Text Only | Print | Product List | Glossary Off
Versions: 1 2 3 4 5 6 7 8 9 10 11 12 13 14 15 16 17 18 19 20 21 22 23 24 25 26 27 28 29 30 31 32 33 34 35 36 37 38 39 40 41 42 43 44 45 46 47 48 49 50

000
ASUS45 KCYS 011310
RWRWY

WYOMING REGIONAL WEATHER ROUNDUP
NATIONAL WEATHER SERVICE CHEYENNE WY
700 AM MDT WED JUL 01 2015

NOTE:  "FAIR" INDICATES FEW OR NO CLOUDS BELOW 12,000 FEET
WITH NO SIGNIFICANT WEATHER AND/OR OBSTRUCTIONS TO VISIBILITY.

WYZ001-011400-
YELLOWSTONE NATIONAL PARK

CITY           SKY/WX    TMP DP  RH WIND       PRES   REMARKS
LK YELLOWSTONE   N/A     51  47  86 CALM      30.36R
W YELLOWSTONE  NOT AVBL

$$
WYZ002>013-054>058-071-098>099-011400-
NORTHERN WYOMING

CITY           SKY/WX    TMP DP  RH WIND       PRES   REMARKS
JACKSON        PTSUNNY   52  48  87 CALM      30.27R
CODY           FAIR      64  52  63 CALM      30.14R
GREYBULL       FAIR      65  53  65 E3        30.05R
WORLAND        FAIR      66  57  72 CALM      30.07R
SHERIDAN       FAIR      64  54  69 CALM      30.08R
BUFFALO        FAIR      66  51  58 W5        30.14S
GILLETTE       FAIR      69  50  50 W6        30.08R
HULETT         FAIR      66  55  68 SW5       30.08R
NEWCASTLE      FAIR      64  54  68 CALM      30.06S

$$
WYZ014>020-022>026-101>103-011400-
CENTRAL WYOMING

CITY           SKY/WX    TMP DP  RH WIND       PRES   REMARKS
BIG PINEY      PTSUNNY   58  48  69 CALM      30.30R
PINEDALE       FAIR      54  46  76 W3        30.31S
DUBOIS         FAIR      54  43  66 NW10      30.29S
LANDER         FAIR      64  52  64 CALM      30.16S
RIVERTON       FAIR      65  54  67 W8        30.17R
CASPER         FAIR      63  53  70 W7        30.17R
DOUGLAS        FAIR      63  56  78 N6        30.14R

$$
WYZ021-027>030-104>119-011400-
SOUTHERN WYOMING

CITY           SKY/WX    TMP DP  RH WIND       PRES   REMARKS
EVANSTON       FAIR      63  47  55 SW5       30.30R
KEMMERER       FAIR      61  48  63 NW8       30.31R
FORT BRIDGER   MOSUNNY   68  46  45 W8        30.32R
ROCK SPRINGS   FAIR      60  53  77 CALM      30.27R
DIXON          FAIR      58  51  77 E3        30.29R
RAWLINS        FAIR      60  56  86 CALM      30.28R
SARATOGA       FAIR      57  50  77 CALM      30.30R
LARAMIE        FAIR      54  51  90 CALM      30.30R
CHEYENNE       FAIR      66  53  63 NW9       30.19R
TORRINGTON     FAIR      66  58  75 CALM      30.04R
PINE BLUFFS    FAIR      63  59  88 CALM      30.12S

$$


USA.gov is the U.S. government's official web portal to all federal, state and local government web resources and services.